Starlink 3352

operational
NORAD ID: 51147 Int'l Des: 2022-005 Owner: SPXS Country: US Constellation: starlink
LEOCIRCULAR

About Starlink 3352

Description loading...

Live Position

Loading 3D Globe...

Upcoming Passes

Altitude History

Altitude vs Time

uPlot chart will show altitude changes over time

Two-Line Element Set

1 51147U 22005AV 26062.74972226 .00039214 00000-0 16003-2 0 9993
2 51147 53.1902 324.0715 0002393 105.7102 254.4160 15.24064461227865
Epoch: Mar 3, 2026 • Age: 38 hours

Current Status

Altitude 502.6 km
Velocity 7.61 km/s
Sub-Earth Point -26.71°S, 78.74°W
Launch Date Jan 19, 2022
Age 4.1 years
Type internet

Technical Details

Classification Payload
Mass 297.00 kg
Dry Mass 275.00 kg
Total Mass 297.00 kg
Length 0.20 m
Diameter 2.80 m
Span 9.00 m
Shape Box + pan
Manufacturer SPXS
Bus Type Starlink
Phase Status In Orbit
Owner/State SPXS/US

Large Constellations

Loading constellations...